Location: Strada George Coșbuc
(47.6577°N, 23.5639°E)
Time: 01:20:03
(UTC+03:00)

ISS - Pass Details

Date: 16 September 2017
Orbit: 401 x 407 km, 51.6° (Epoch: 23 September)

Event Time Altitude Azimuth Distance (km) Brightness Sun altitude
Exits shadow 03:56:45 15° 64° (ENE) 1,222 -0.7 -29.3°
Drops below altitude 10° 03:57:32 - 70° (ENE) 1,518 -0.1 -29.2°
Sets 03:59:35 0° 77° (ENE) 2,334 0.9 -28.9°
